Time,TemperatureF,DewpointF,PressureIn,WindDirection,WindDirectionDegrees,WindSpeedMPH,WindSpeedGustMPH,Humidity,HourlyPrecipIn,Conditions,Clouds,dailyrainin,SoftwareType,DateUTC
2013-09-23 00:00:00,62.1,46.0,29.80,SE,126,0.0,3.0,56,0.00,,,0.00,weatherlink.com 1.10,2013-09-23 07:00:00,
2013-09-23 00:15:00,60.5,44.0,29.80,SE,126,0.0,0.0,54,0.00,,,0.00,weatherlink.com 1.10,2013-09-23 07:15:00,
2013-09-23 00:30:00,59.5,44.0,29.80,SE,126,0.0,3.0,56,0.00,,,0.00,weatherlink.com 1.10,2013-09-23 07:30:00,
2013-09-23 00:45:00,58.3,44.0,29.80,East,90,0.0,3.0,60,0.00,,,0.00,weatherlink.com 1.10,2013-09-23 07:45:00,
2013-09-23 01:00:00,57.7,43.0,29.80,East,96,1.0,3.0,58,0.00,,,0.00,weatherlink.com 1.10,2013-09-23 08:00:00,
2013-09-23 01:15:00,58.5,41.0,29.80,ENE,65,2.0,4.0,52,0.00,,,0.00,weatherlink.com 1.10,2013-09-23 08:15:00,
2013-09-23 01:31:00,61.4,42.0,29.79,East,85,2.0,5.0,49,0.00,,,0.00,weatherlink.com 1.10,2013-09-23 08:31:00,
2013-09-23 01:46:00,63.7,44.0,29.80,ENE,76,0.0,3.0,49,0.00,,,0.00,weatherlink.com 1.10,2013-09-23 08:46:00,
2013-09-23 02:01:00,63.5,46.0,29.80,ENE,63,0.0,4.0,54,0.00,,,0.00,weatherlink.com 1.10,2013-09-23 09:01:00,
2013-09-23 02:16:00,64.1,44.0,29.80,East,81,0.0,8.0,48,0.00,,,0.00,weatherlink.com 1.10,2013-09-23 09:16:00,
2013-09-23 02:31:00,65.3,44.0,29.80,ENE,59,2.0,7.0,46,0.00,,,0.00,weatherlink.com 1.10,2013-09-23 09:31:00,
2013-09-23 02:46:00,65.3,44.0,29.80,East,87,3.0,6.0,46,0.00,,,0.00,weatherlink.com 1.10,2013-09-23 09:46:00,
2013-09-23 03:01:00,64.5,44.0,29.79,ESE,120,1.0,4.0,47,0.00,,,0.00,weatherlink.com 1.10,2013-09-23 10:01:00,
2013-09-23 03:16:00,64.4,44.0,29.80,NE,44,1.0,4.0,48,0.00,,,0.00,weatherlink.com 1.10,2013-09-23 10:16:00,
2013-09-23 03:31:00,64.2,44.0,29.79,ENE,76,3.0,5.0,48,0.00,,,0.00,weatherlink.com 1.10,2013-09-23 10:31:00,
2013-09-23 03:46:00,64.8,44.0,29.79,ESE,109,1.0,4.0,47,0.00,,,0.00,weatherlink.com 1.10,2013-09-23 10:46:00,
2013-09-23 04:02:00,64.6,45.0,29.79,NE,54,2.0,3.0,49,0.00,,,0.00,weatherlink.com 1.10,2013-09-23 11:02:00,
2013-09-23 04:16:00,63.5,44.0,29.79,East,101,0.0,6.0,49,0.00,,,0.00,weatherlink.com 1.10,2013-09-23 11:16:00,
2013-09-23 04:31:00,64.6,44.0,29.79,NE,51,2.0,8.0,47,0.00,,,0.00,weatherlink.com 1.10,2013-09-23 11:31:00,
2013-09-23 05:01:00,64.1,45.0,29.79,East,86,0.0,7.0,51,0.00,,,0.00,weatherlink.com 1.10,2013-09-23 12:01:00,
2013-09-23 05:16:00,62.8,45.0,29.79,ENE,71,1.0,5.0,52,0.00,,,0.00,weatherlink.com 1.10,2013-09-23 12:16:00,
2013-09-23 05:31:00,62.3,45.0,29.79,NE,51,1.0,7.0,53,0.00,,,0.00,weatherlink.com 1.10,2013-09-23 12:31:00,
2013-09-23 05:46:00,62.9,45.0,29.80,East,98,1.0,8.0,53,0.00,,,0.00,weatherlink.com 1.10,2013-09-23 12:46:00,
2013-09-23 06:01:00,62.7,46.0,29.80,ENE,57,1.0,3.0,54,0.00,,,0.00,weatherlink.com 1.10,2013-09-23 13:01:00,
2013-09-23 06:16:00,62.0,46.0,29.81,ENE,70,0.0,2.0,56,0.00,,,0.00,weatherlink.com 1.10,2013-09-23 13:16:00,
2013-09-23 06:31:00,61.2,46.0,29.81,NNE,13,2.0,5.0,58,0.00,,,0.00,weatherlink.com 1.10,2013-09-23 13:31:00,
2013-09-23 06:46:00,65.0,45.0,29.81,South,171,3.0,12.0,49,0.00,,,0.00,weatherlink.com 1.10,2013-09-23 13:46:00,
2013-09-23 07:01:00,65.9,45.0,29.82,NNE,32,2.0,6.0,48,0.00,,,0.00,weatherlink.com 1.10,2013-09-23 14:01:00,
2013-09-23 07:16:00,65.4,46.0,29.82,North,360,3.0,9.0,49,0.00,,,0.00,weatherlink.com 1.10,2013-09-23 14:16:00,
2013-09-23 07:31:00,65.1,46.0,29.82,NNE,21,2.0,7.0,50,0.00,,,0.00,weatherlink.com 1.10,2013-09-23 14:31:00,
2013-09-23 07:46:00,66.4,46.0,29.83,NNE,30,4.0,9.0,49,0.00,,,0.00,weatherlink.com 1.10,2013-09-23 14:46:00,
2013-09-23 08:01:00,67.6,47.0,29.83,NE,46,4.0,8.0,48,0.00,,,0.00,weatherlink.com 1.10,2013-09-23 15:01:00,
2013-09-23 08:16:00,69.3,45.0,29.83,NE,48,0.0,8.0,42,0.00,,,0.00,weatherlink.com 1.10,2013-09-23 15:16:00,
2013-09-23 08:32:00,71.0,44.0,29.83,ENE,68,0.0,5.0,38,0.00,,,0.00,weatherlink.com 1.10,2013-09-23 15:32:00,
2013-09-23 08:46:00,72.7,44.0,29.84,NE,34,3.0,8.0,36,0.00,,,0.00,weatherlink.com 1.10,2013-09-23 15:46:00,
2013-09-23 09:02:00,75.2,44.0,29.84,East,93,5.0,11.0,33,0.00,,,0.00,weatherlink.com 1.10,2013-09-23 16:02:00,
2013-09-23 09:16:00,78.5,45.0,29.84,NE,39,2.0,8.0,31,0.00,,,0.00,weatherlink.com 1.10,2013-09-23 16:16:00,
2013-09-23 09:31:00,81.2,44.0,29.84,NE,42,2.0,9.0,27,0.00,,,0.00,weatherlink.com 1.10,2013-09-23 16:31:00,
2013-09-23 09:46:00,82.7,43.0,29.84,East,80,0.0,13.0,25,0.00,,,0.00,weatherlink.com 1.10,2013-09-23 16:46:00,
2013-09-23 10:01:00,84.5,43.0,29.84,East,93,0.0,11.0,23,0.00,,,0.00,weatherlink.com 1.10,2013-09-23 17:01:00,
2013-09-23 10:16:00,86.3,41.0,29.84,ESE,104,1.0,9.0,20,0.00,,,0.00,weatherlink.com 1.10,2013-09-23 17:16:00,
2013-09-23 10:31:00,87.7,42.0,29.84,ENE,74,3.0,8.0,20,0.00,,,0.00,weatherlink.com 1.10,2013-09-23 17:31:00,
2013-09-23 10:47:00,89.2,39.0,29.83,NE,53,3.0,13.0,17,0.00,,,0.00,weatherlink.com 1.10,2013-09-23 17:47:00,
2013-09-23 11:01:00,90.3,38.0,29.83,East,80,5.0,14.0,16,0.00,,,0.00,weatherlink.com 1.10,2013-09-23 18:01:00,
2013-09-23 11:17:00,91.1,41.0,29.83,NE,42,4.0,8.0,17,0.00,,,0.00,weatherlink.com 1.10,2013-09-23 18:17:00,
2013-09-23 11:32:00,91.9,40.0,29.82,NE,49,3.0,8.0,16,0.00,,,0.00,weatherlink.com 1.10,2013-09-23 18:32:00,
2013-09-23 11:47:00,92.9,40.0,29.82,NE,42,5.0,10.0,16,0.00,,,0.00,weatherlink.com 1.10,2013-09-23 18:47:00,
2013-09-23 12:02:00,93.6,38.0,29.82,East,80,5.0,11.0,14,0.00,,,0.00,weatherlink.com 1.10,2013-09-23 19:02:00,
2013-09-23 12:17:00,94.4,40.0,29.81,ENE,69,3.0,9.0,15,0.00,,,0.00,weatherlink.com 1.10,2013-09-23 19:17:00,
2013-09-23 12:32:00,94.9,39.0,29.81,ENE,68,3.0,11.0,14,0.00,,,0.00,weatherlink.com 1.10,2013-09-23 19:32:00,
2013-09-23 12:47:00,95.6,39.0,29.81,SSE,167,2.0,8.0,14,0.00,,,0.00,weatherlink.com 1.10,2013-09-23 19:47:00,
2013-09-23 13:02:00,96.2,40.0,29.80,East,93,3.0,8.0,14,0.00,,,0.00,weatherlink.com 1.10,2013-09-23 20:02:00,
2013-09-23 13:17:00,97.1,37.0,29.80,NE,38,1.0,8.0,12,0.00,,,0.00,weatherlink.com 1.10,2013-09-23 20:17:00,
2013-09-23 13:32:00,96.7,40.0,29.79,NNE,21,6.0,7.0,14,0.00,,,0.00,weatherlink.com 1.10,2013-09-23 20:32:00,
2013-09-23 13:48:00,96.9,40.0,29.79,NNE,18,7.0,10.0,14,0.00,,,0.00,weatherlink.com 1.10,2013-09-23 20:48:00,
2013-09-23 14:02:00,97.0,40.0,29.78,ENE,64,1.0,11.0,14,0.00,,,0.00,weatherlink.com 1.10,2013-09-23 21:02:00,
2013-09-23 14:17:00,98.1,48.0,29.78,NW,304,8.0,12.0,18,0.00,,,0.00,weatherlink.com 1.10,2013-09-23 21:17:00,
2013-09-23 14:33:00,95.5,52.0,29.79,West,274,10.0,18.0,23,0.00,,,0.00,weatherlink.com 1.10,2013-09-23 21:33:00,
2013-09-23 14:47:00,93.5,53.0,29.79,West,266,6.0,16.0,25,0.00,,,0.00,weatherlink.com 1.10,2013-09-23 21:47:00,
2013-09-23 15:02:00,93.2,49.0,29.79,West,279,8.0,16.0,22,0.00,,,0.00,weatherlink.com 1.10,2013-09-23 22:02:00,
2013-09-23 15:17:00,92.8,47.0,29.79,WSW,258,8.0,18.0,21,0.00,,,0.00,weatherlink.com 1.10,2013-09-23 22:17:00,
2013-09-23 15:32:00,93.2,47.0,29.78,West,272,11.0,15.0,20,0.00,,,0.00,weatherlink.com 1.10,2013-09-23 22:32:00,
2013-09-23 15:47:00,93.5,45.0,29.78,West,263,8.0,15.0,19,0.00,,,0.00,weatherlink.com 1.10,2013-09-23 22:47:00,
2013-09-23 16:02:00,93.2,39.0,29.78,West,262,10.0,14.0,15,0.00,,,0.00,weatherlink.com 1.10,2013-09-23 23:02:00,
2013-09-23 16:18:00,92.1,40.0,29.78,WSW,250,8.0,14.0,16,0.00,,,0.00,weatherlink.com 1.10,2013-09-23 23:18:00,
2013-09-23 16:32:00,91.2,37.0,29.78,West,259,5.0,14.0,15,0.00,,,0.00,weatherlink.com 1.10,2013-09-23 23:32:00,
2013-09-23 16:48:00,90.7,40.0,29.78,WSW,250,8.0,11.0,17,0.00,,,0.00,weatherlink.com 1.10,2013-09-23 23:48:00,
2013-09-23 17:04:00,90.6,42.0,29.78,West,269,8.0,12.0,18,0.00,,,0.00,weatherlink.com 1.10,2013-09-24 00:04:00,
2013-09-23 17:18:00,89.9,42.0,29.78,SW,234,7.0,12.0,19,0.00,,,0.00,weatherlink.com 1.10,2013-09-24 00:18:00,
2013-09-23 17:34:00,88.5,41.0,29.78,West,261,11.0,12.0,19,0.00,,,0.00,weatherlink.com 1.10,2013-09-24 00:34:00,
2013-09-23 17:48:00,87.2,43.0,29.79,West,262,6.0,12.0,21,0.00,,,0.00,weatherlink.com 1.10,2013-09-24 00:48:00,
2013-09-23 18:03:00,85.9,43.0,29.79,WSW,248,5.0,9.0,22,0.00,,,0.00,weatherlink.com 1.10,2013-09-24 01:03:00,
2013-09-23 18:18:00,84.5,44.0,29.79,West,265,4.0,6.0,24,0.00,,,0.00,weatherlink.com 1.10,2013-09-24 01:18:00,
2013-09-23 18:34:00,83.0,44.0,29.79,WSW,246,2.0,4.0,25,0.00,,,0.00,weatherlink.com 1.10,2013-09-24 01:34:00,
2013-09-23 18:48:00,81.2,44.0,29.79,WSW,238,2.0,5.0,27,0.00,,,0.00,weatherlink.com 1.10,2013-09-24 01:48:00,
2013-09-23 19:04:00,79.8,47.0,29.80,WSW,237,5.0,6.0,32,0.00,,,0.00,weatherlink.com 1.10,2013-09-24 02:04:00,
2013-09-23 19:18:00,78.3,48.0,29.80,SW,221,5.0,6.0,34,0.00,,,0.00,weatherlink.com 1.10,2013-09-24 02:18:00,
2013-09-23 19:34:00,76.6,48.0,29.81,SSW,202,2.0,4.0,36,0.00,,,0.00,weatherlink.com 1.10,2013-09-24 02:34:00,
2013-09-23 19:49:00,75.2,47.0,29.82,SSW,203,0.0,6.0,37,0.00,,,0.00,weatherlink.com 1.10,2013-09-24 02:49:00,
2013-09-23 20:04:00,72.7,45.0,29.82,WSW,239,0.0,4.0,37,0.00,,,0.00,weatherlink.com 1.10,2013-09-24 03:04:00,
2013-09-23 20:19:00,71.3,47.0,29.82,WSW,239,0.0,1.0,42,0.00,,,0.00,weatherlink.com 1.10,2013-09-24 03:19:00,
2013-09-23 20:35:00,69.5,48.0,29.83,WSW,239,0.0,0.0,46,0.00,,,0.00,weatherlink.com 1.10,2013-09-24 03:35:00,
2013-09-23 20:49:00,68.2,49.0,29.83,WSW,239,0.0,0.0,50,0.00,,,0.00,weatherlink.com 1.10,2013-09-24 03:49:00,
2013-09-23 21:05:00,66.5,48.0,29.84,WSW,239,0.0,0.0,52,0.00,,,0.00,weatherlink.com 1.10,2013-09-24 04:05:00,
2013-09-23 21:19:00,65.2,48.0,29.85,WSW,239,0.0,0.0,54,0.00,,,0.00,weatherlink.com 1.10,2013-09-24 04:19:00,
2013-09-23 21:34:00,63.9,49.0,29.85,WSW,239,0.0,1.0,59,0.00,,,0.00,weatherlink.com 1.10,2013-09-24 04:34:00,
2013-09-23 21:50:00,62.6,49.0,29.85,WSW,239,0.0,0.0,62,0.00,,,0.00,weatherlink.com 1.10,2013-09-24 04:50:00,
2013-09-23 22:04:00,61.6,49.0,29.86,WSW,239,0.0,0.0,63,0.00,,,0.00,weatherlink.com 1.10,2013-09-24 05:04:00,
2013-09-23 22:20:00,60.5,49.0,29.85,WSW,239,0.0,3.0,65,0.00,,,0.00,weatherlink.com 1.10,2013-09-24 05:20:00,
2013-09-23 22:34:00,60.0,49.0,29.85,ESE,106,3.0,3.0,68,0.00,,,0.00,weatherlink.com 1.10,2013-09-24 05:34:00,
2013-09-23 22:50:00,60.0,48.0,29.85,NE,50,0.0,4.0,64,0.00,,,0.00,weatherlink.com 1.10,2013-09-24 05:50:00,
2013-09-23 23:05:00,59.7,45.0,29.85,ENE,62,2.0,4.0,59,0.00,,,0.00,weatherlink.com 1.10,2013-09-24 06:05:00,
2013-09-23 23:20:00,60.2,47.0,29.84,ENE,59,1.0,3.0,61,0.00,,,0.00,weatherlink.com 1.10,2013-09-24 06:20:00,
2013-09-23 23:34:00,60.3,44.0,29.85,ENE,61,1.0,5.0,55,0.00,,,0.00,weatherlink.com 1.10,2013-09-24 06:34:00,
2013-09-23 23:49:00,61.5,43.0,29.84,ENE,78,0.0,2.0,50,0.00,,,0.00,weatherlink.com 1.10,2013-09-24 06:49:00,